Regional Weather Roundup
Issued by NWS Sioux Falls, SD

Home | Current Version | Previous Version | Graphics & Text | Print | Product List | Glossary On
Versions: 1 2 3 4 5 6 7 8 9 10 11 12 13 14 15 16 17 18 19 20 21 22 23 24 25 26 27 28 29 30 31 32 33 34 35 36 37 38 39 40 41 42 43 44 45 46 47 48 49 50
000
ASUS43 KFSD 180110
RWRFSD

WEATHER ROUNDUP FOR SE SOUTH DAKOTA/SW MINNESOTA/NW IOWA
NATIONAL WEATHER SERVICE SIOUX FALLS SD
700 PM CST TUE JAN 17 2017

NOTE: "FAIR" INDICATES FEW OR NO CLOUDS BELOW 12,000 FEET WITH NO
SIGNIFICANT WEATHER AND OR OBSTRUCTIONS TO VISIBILITY.


SDZ038>040-050-052>070-180200-
SOUTHEAST SOUTH DAKOTA

CITY           SKY/WX    TMP DP  RH WIND       PRES   REMARKS
BROOKINGS      CLOUDY    24  21  88 S12       29.94F WCI  13
CHAMBERLAIN    CLOUDY    32  26  77 SE5       29.91S WCI  28
HURON          CLOUDY    26  22  84 SE7       29.94S WCI  18
MADISON          N/A     23  23 100 S10         N/A  WCI  12
MITCHELL       CLOUDY    33  29  85 S13       29.96F WCI  24
SIOUX FALLS    CLOUDY    27  24  89 S8        29.99F WCI  19
WINNER         FAIR      40  20  44 SW6       29.92R
YANKTON        CLOUDY    30  27  86 SE6       30.01F WCI  24
$$

MNZ071-072-080-081-089-090-097-098-180200-
SOUTHWEST MINNESOTA

CITY           SKY/WX    TMP DP  RH WIND       PRES   REMARKS
FAIRMONT       CLEAR     28  27  96 SW6       30.02F WCI  22
JACKSON        CLEAR     28  27  93 SW3       30.00F
LUVERNE        CLOUDY    25  23  93 S6        30.00F WCI  18
MARSHALL       CLOUDY    25  22  88 SW13      29.96F WCI  14
MONTEVIDEO     CLOUDY    21  18  86 SW6       29.98S WCI  14
PIPESTONE      CLOUDY    25  21  86 S8        29.96F WCI  16
REDWOOD FALLS  CLOUDY    21  18  88 S5        29.98F WCI  15
TRACY          CLOUDY    28  25  87 SW15      29.96F WCI  17
WINDOM           N/A     28  27  93 SW5       29.99S WCI  23
WORTHINGTON    CLOUDY    27  25  92 SW12      29.99F WCI  17
$$

IAZ001>003-012>014-020>022-031-032-NEZ013-014-SDZ071-180200-
NORTHWEST IOWA

CITY           SKY/WX    TMP DP  RH WIND       PRES   REMARKS
CHEROKEE       PTCLDY    26  26 100 S5        30.05S FOG     WCI  21
DENISON        CLOUDY    28  28 100 S5        30.06F WCI  23
ESTHERVILLE    CLEAR     28  27  96 SW7       30.01F WCI  21
LE MARS        CLEAR     30  28  93 S6        30.06R WCI  24
ORANGE CITY    CLEAR     28  28 100 S3        30.03S
SHELDON        CLEAR     28  28 100 SW7       30.01S WCI  21
SIOUX CITY     CLEAR     31  28  89 S6        30.06S WCI  25
SPENCER        CLEAR     27  24  89 SW7       30.03S WCI  19
STORM LAKE     CLOUDY    28  27  93 SW12      30.05R FOG     WCI  18
$$

ABBREVIATIONS USED IN REMARKS
   TC - TEMPERATURE IN CELSIUS
  WCI - WIND CHILL INDEX
   HX - HEAT INDEX
  VSB - VISIBILITY




USA.gov is the U.S. government's official web portal to all federal, state and local government web resources and services.